Probability
0 0 0 0 0 0 0 0 0 0 0 0 0 0 0 0 0 0 0 0 0 0 0 0 0 0 0 0 0 0 0 0 0 0 0 0 0 0
0 0 0 0 0 0 0 0 0 0 0 0 0 0 0 0 0 0 0 0 0 0 0 0 0 0 0 0 0 0 0 0 0 0 0 0 0 1
0 0 0 0 0 0 0 0 0 0 0 0 0 0 0 0 0 0 0 0 0 0 0 0 0 0 0 0 0 0 0 0 0 0 0 0 0 1
0 0 0 0 0 0 0 0 0 0 0 0 0 0 0 0 0 0 0 0 0 0 0 0 0 0 0 0 0 0 0 0 0 0 0 0 0 1
0 0 0 0 0 0 0 0 0 0 0 0 0 0 0 0 0 0 0 0 0 0 0 0 0 0 0 0 0 0 0 0 0 0 0 0 0 0
0 0 0 0 0 0 0 0 0 0 0 0 0 0 0 0 0 0 0 0 0 0 0 0 0 0 0 0 0 0 0 0 0 0 0 0 0 0
0 0 0 0 0 0 0 0 0 0 0 0 0 0 0 0 0 0 0 0 0 0 0 0 0 0 0 0 0 0 0 0 0 0 0 0 0 0
0 0 0 0 0 0 0 0 0 0 0 0 0 0 0 0 0 0 0 0 0 0 0 0 0 0 0 0 0 0 0 0 0 0 0 0 0 0
0 0 0 0 0 0 0 0 0 0 0 0 0 0 0 0 0 0 0 0 0 0 0 0 0 0 0 0 0 0 0 0 0 0 0 0 0 0
0 0 0 0 0 0 0 0 0 0 0 0 0 0 0 0 0 0 0 0 0 0 0 0 0 0 0 0 0 0 0 0 0 0 0 0 0 0
0 0 0 0 0 0 0 0 0 0 0 0 0 0 0 0 0 0 0 0 0 0 0 0 0 0 0 0 0 0 0 0 0 0 0 0 0 0
0 0 0 0 0 0 0 0 0 0 0 0 0 0 0 0 0 0 0 0 0 0 0 0 0 0 0 0 0 0 0 0 0 0 0 0 0 0
0 0 0 0 0 0 0 0 0 0 0 0 0 0 0 0 0 0 0 0 0 0 0 0 0 0 0 0 0 0 0 0 0 0 0 0 0 0
0 0 0 0 0 0 0 0 0 0 0 0 0 0 0 0 0 0 0 0 0 0 0 0 0 0 0 0 0 0 0 0 0 0 0 0 0 0
0 0 0 0 0 0 0 0 0 0 0 0 0 0 0 0 0 0 0 0 0 0 0 0 0 0 0 0 0 0 0 0 0 0 0 0 0 0
0 0 0 0 0 0 0 0 0 0 0 0 0 0 0 0 0 0 0 0 0 0 0 0 0 0 0 0 0 0 0 0 0 0 0 0 0 0
0 0 0 0 0 0 0 0 0 0 0 0 0 0 0 0 0 0 0 0 0 0 0 0 0 0 0 0 0 0 0 0 0 0 0 0 0 0
0 0 0 0 0 0 0 0 0 0 0 0 0 0 0 0 0 0 0 0 0 0 0 0 0 0 0 0 0 0 0 0 0 0 0 0 0 0
0 0 0 0 0 0 0 0 0 0 0 0 0 0 0 0 0 0 0 0 0 0 0 0 0 0 0 0 0 0 0 0 0 0 0 0 0 0
0 0 0 0 0 0 0 0 0 0 0 0 0 0 0 0 0 0 0 0 0 0 0 0 0 0 0 0 0 0 0 0 0 0 0 0 0 0
0 0 0 0 0 0 0 0 0 0 0 0 0 0 0 0 0 0 0 0 0 0 0 0 0 0 0 0 0 0 0 0 0 0 0 0 0 0
0 0 0 0 0 0 0 0 0 0 0 0 0 0 0 0 0 0 0 0 0 0 0 0 0 0 0 0 0 0 0 0 0 0 0 0 0 0
0 0 0 0 0 0 0 0 0 0 0 0 0 0 0 0 0 0 0 0 0 0 0 0 0 0 0 0 0 0 0 0 0 0 0 0 0 0
Wind_Speed
4 4 4 3 3 3 3 3 3 4 4 3 3 3 4 4 6 7 8 9 12 13 14 15 15 16 16 17 17 17 17 17 17 17 18 18 18 18
2 3 3 2 2 2 2 3 3 4 4 3 4 5 5 5 6 7 8 11 11 12 13 14 15 15 16 17 17 17 17 17 17 18 18 18 18 18
3 3 3 2 2 2 2 2 2 3 5 5 4 4 6 7 6 7 7 8 7 10 12 13 14 15 15 16 16 16 17 17 17 18 19 19 19 18
3 3 3 2 2 2 2 2 2 3 5 6 5 5 6 7 7 8 7 6 7 9 11 13 14 15 15 15 15 15 15 16 16 17 18 18 18 18
4 4 4 3 3 2 2 2 2 3 4 5 5 4 5 5 7 7 8 7 7 8 10 11 13 14 14 15 15 15 15 15 16 16 16 17 17 17
3 3 3 4 3 3 2 3 3 3 3 4 4 4 4 5 5 6 7 6 7 7 8 9 11 12 13 14 14 14 14 15 15 15 14 15 14 15
2 2 2 2 2 2 2 3 3 3 3 3 4 4 4 4 5 5 7 7 7 6 7 7 7 7 8 10 11 13 13 13 13 14 14 14 13 13
3 2 2 3 3 3 3 3 4 4 4 3 4 4 5 5 6 5 6 7 7 4 7 8 7 7 7 7 11 13 14 14 14 13 13 13 13 11
3 3 2 2 3 2 3 3 3 4 5 4 5 6 6 6 6 7 7 7 8 7 7 8 7 8 7 8 12 13 13 13 14 14 13 13 12 11
3 3 3 3 2 2 2 3 3 3 3 4 5 5 5 6 6 7 8 9 9 6 6 8 7 8 8 8 10 12 13 14 14 13 13 12 11 10
3 3 3 3 3 3 3 3 3 3 2 4 5 5 6 7 7 5 6 6 7 6 4 6 7 8 8 7 8 11 12 13 13 13 12 11 10 9
2 3 4 4 3 4 3 3 4 4 3 3 4 4 5 5 6 5 5 5 6 5 3 4 6 6 6 5 6 7 8 11 13 12 12 11 9 6
3 2 2 4 5 4 4 4 4 4 3 3 3 3 3 4 4 4 5 5 6 6 4 4 5 5 5 7 6 6 7 7 7 8 9 9 9 6
3 3 2 4 4 4 3 3 3 3 2 2 3 3 3 4 4 5 6 6 6 8 7 6 5 5 6 7 7 6 6 6 6 7 6 8 7 7
3 3 4 4 3 3 3 3 3 2 2 2 3 3 4 4 5 5 5 6 7 6 6 6 6 6 6 6 7 6 7 6 6 6 6 5 5 4
3 3 4 4 3 3 2 2 2 2 2 3 3 3 3 3 4 4 5 5 5 5 4 5 6 6 6 7 6 7 6 5 6 6 6 5 5 4
3 2 2 3 2 2 2 1 1 1 2 2 3 3 3 3 4 4 4 4 5 5 6 5 5 5 6 6 5 6 6 5 5 6 5 5 5 4
4 3 3 3 3 3 3 2 2 2 2 2 3 3 3 4 4 4 4 4 5 5 6 5 5 5 3 3 4 6 5 5 5 5 5 5 5 5
5 4 4 4 4 3 3 3 2 2 2 2 3 3 3 4 4 4 4 4 5 5 5 4 4 4 5 5 3 2 5 5 5 5 4 4 5 5
4 4 4 4 4 3 3 3 2 2 2 2 3 3 3 3 4 4 4 5 5 5 5 4 4 4 5 5 5 5 5 5 5 5 5 4 4 5
5 5 4 4 4 3 3 3 3 3 3 3 3 3 3 3 4 4 4 5 5 4 5 5 5 6 5 3 4 4 4 4 4 4 4 4 4 3
5 5 4 4 4 4 3 3 3 3 3 3 3 3 3 3 4 5 4 4 4 4 5 5 4 4 3 3 4 5 5 5 5 5 4 3 2 2
5 5 4 4 4 4 4 4 4 3 3 3 3 3 3 3 4 4 4 4 4 4 5 4 4 3 3 3 4 4 5 5 4 4 4 5 5 4
Wind_Direction
215 216 220 222 228 231 237 235 238 255 258 252 254 263 284 287 290 285 286 290 288 287 289 292 295 295 295 293 291 290 288 287 284 280 279 278 272 272
209 208 212 221 220 224 231 243 243 249 261 266 268 284 292 288 292 290 290 290 282 285 289 290 292 294 295 295 292 289 287 285 283 280 278 278 275 272
204 209 216 221 220 225 234 240 246 248 259 275 281 287 287 289 292 289 287 287 285 288 293 295 296 297 297 298 296 292 289 286 284 281 279 278 276 270
203 206 215 213 220 226 230 237 248 255 259 270 279 282 286 292 294 293 292 292 290 292 291 293 295 296 297 298 298 296 295 291 288 284 281 279 277 271
202 204 209 207 216 225 236 245 255 263 261 263 274 281 287 292 296 294 293 292 293 293 291 292 294 297 298 298 299 297 295 295 292 288 286 283 278 275
205 206 211 212 217 222 235 247 256 261 259 261 271 280 286 295 297 298 298 300 299 299 297 298 296 293 292 297 299 297 296 296 296 295 291 287 282 279
194 202 207 208 219 228 234 241 247 252 258 263 270 279 282 292 294 298 297 302 296 295 301 298 296 295 296 295 296 301 300 299 298 298 298 295 286 280
191 196 192 189 196 215 237 254 263 260 264 268 274 275 284 290 294 294 299 301 297 305 304 296 294 294 296 295 305 307 302 301 301 300 299 297 292 288
194 197 196 194 201 215 226 245 262 270 271 273 271 276 285 290 292 293 292 293 289 300 301 290 294 293 296 295 302 305 305 303 303 301 300 299 294 289
203 208 212 213 208 230 250 262 270 274 276 271 272 283 290 294 290 288 291 290 284 284 292 286 296 296 299 295 299 303 308 308 304 301 300 300 299 296
204 211 219 228 207 221 245 260 273 280 279 278 287 289 296 299 299 292 293 295 293 291 289 286 294 299 294 291 298 303 306 310 309 304 303 301 300 295
201 206 213 227 226 225 240 249 262 276 285 287 284 284 287 290 292 283 285 287 293 293 301 298 294 307 301 291 303 309 308 310 312 310 307 305 303 295
207 210 207 211 233 238 248 253 264 285 287 289 291 297 302 303 300 293 285 278 277 276 299 303 291 292 284 295 302 306 311 313 313 310 306 307 306 297
213 216 214 210 231 240 248 252 269 282 280 288 291 295 300 301 301 299 292 284 274 275 289 291 279 285 290 291 296 308 312 313 314 312 309 309 303 298
215 208 213 217 234 241 234 236 251 259 266 273 280 288 293 296 300 298 294 289 283 278 281 278 275 277 274 279 291 301 309 311 312 311 312 308 305 299
206 190 197 210 222 225 220 227 251 265 270 271 280 289 294 296 297 302 303 305 300 297 288 285 281 275 274 279 280 291 300 301 310 314 311 305 305 301
180 188 197 203 207 214 229 241 253 264 273 278 279 283 291 296 300 304 302 302 298 304 311 310 298 282 270 278 286 291 297 301 305 312 309 308 308 304
183 198 204 211 218 222 230 237 244 256 270 278 279 283 289 293 297 299 297 294 297 300 304 311 315 306 286 260 264 285 297 305 312 315 313 307 310 315
202 208 212 216 220 223 229 234 246 254 262 266 274 281 287 291 293 296 298 296 296 299 303 308 313 312 311 314 309 290 305 311 316 319 320 311 303 309
212 213 215 216 216 220 226 234 243 248 252 262 269 276 283 287 291 294 295 298 300 302 305 309 313 308 295 299 303 307 309 307 309 312 315 315 311 312
211 214 215 215 216 218 222 227 232 240 250 256 263 272 279 283 287 292 293 296 296 299 303 306 305 298 288 283 289 302 314 315 310 309 312 315 320 330
211 212 212 211 211 214 216 220 229 237 243 249 257 266 273 276 283 289 292 293 292 295 297 302 307 306 301 297 302 311 319 326 325 319 314 313 303 303
209 208 208 207 208 209 214 219 226 235 239 245 253 263 270 276 281 286 292 290 292 296 300 306 311 308 305 301 302 309 317 324 329 335 341 347 344 342